WetterOnline ( https://www.wetteronline.de )

Wetter aktuell Waibstadt

Aktuelles Wetter: Waibstadt (237m)

6-stündlich | Neueste Meldungen
Ortszeit Temperatur Wetter
Sa, 18.09. 20:00 17.7° C leicht bewölkt
Sa, 18.09. 14:00 20.8° C wolkenlos
Sa, 18.09. 8:00 8.6° C Nebel
Sa, 18.09. 2:00 11.1° C wolkig
Fr, 17.09. 20:00 15.6° C fast wolkenlos
Fr, 17.09. 14:00 18.4° C bewölkt
Fr, 17.09. 8:00 10.8° C Nebel
Fr, 17.09. 2:00 13.7° C bedeckt
Ortszeit Temperatur Wetter
Sa, 18.09. 20:00 17.7° C leicht bewölkt
Sa, 18.09. 19:50 17.7° C leicht bewölkt
Sa, 18.09. 19:40 18.1° C leicht bewölkt
Sa, 18.09. 19:30 19.1° C leicht bewölkt
Sa, 18.09. 19:20 19.1° C leicht bewölkt
Sa, 18.09. 19:10 19.3° C wolkig
Sa, 18.09. 19:00 20.1° C wolkig
Sa, 18.09. 18:30 20.5° C fast wolkenlos
Sa, 18.09. 18:00 20.9° C wolkenlos
Sa, 18.09. 17:30 21.0° C fast wolkenlos
Sa, 18.09. 17:00 20.4° C wolkenlos
Ortszeit Relative Feuchte Sichtweite
Sa, 18.09. 20:00 74% 15 km
Sa, 18.09. 14:00 55% 35 km
Sa, 18.09. 8:00 100% 100 m
Sa, 18.09. 2:00 100% 2.6 km
Fr, 17.09. 20:00 82% 50 km
Fr, 17.09. 14:00 60% 55 km
Fr, 17.09. 8:00 100% 100 m
Fr, 17.09. 2:00 94% 35 km
Ortszeit Relative Feuchte Sichtweite
Sa, 18.09. 20:00 74% 15 km
Sa, 18.09. 19:50 74% -
Sa, 18.09. 19:40 72% -
Sa, 18.09. 19:30 67% 45 km
Sa, 18.09. 19:20 67% -
Sa, 18.09. 19:10 64% -
Sa, 18.09. 19:00 63% 45 km
Sa, 18.09. 18:30 59% 55 km
Sa, 18.09. 18:00 57% 50 km
Sa, 18.09. 17:30 59% 40 km
Sa, 18.09. 17:00 62% 65 km
Ortszeit Niederschlagsmenge Niederschlagsart
Sa, 18.09. 20:00 0.0 l/m2 in 12 Std. -
Sa, 18.09. 14:00 0.0 l/m2 in 6 Std. -
Sa, 18.09. 8:00 0.0 l/m2 in 12 Std. -
Sa, 18.09. 2:00 0.0 l/m2 in 6 Std. -
Fr, 17.09. 20:00 0.0 l/m2 in 12 Std. -
Fr, 17.09. 14:00 0.0 l/m2 in 6 Std. -
Fr, 17.09. 8:00 0.0 l/m2 in 12 Std. -
Fr, 17.09. 2:00 0.0 l/m2 in 6 Std. -
Ortszeit Niederschlagsmenge Niederschlagsart
Sa, 18.09. 20:00 0.0 l/m2 in 1 Std. -
Sa, 18.09. 19:50 keine Meldung -
Sa, 18.09. 19:40 keine Meldung -
Sa, 18.09. 19:30 0.0 l/m2 in 1 Std. -
Sa, 18.09. 19:20 keine Meldung -
Sa, 18.09. 19:10 keine Meldung -
Sa, 18.09. 19:00 0.0 l/m2 in 1 Std. -
Sa, 18.09. 18:30 0.0 l/m2 in 1 Std. -
Sa, 18.09. 18:00 0.0 l/m2 in 1 Std. -
Sa, 18.09. 17:30 0.0 l/m2 in 1 Std. -
Sa, 18.09. 17:00 0.0 l/m2 in 1 Std. -
Ortszeit Stärke Spitze Richtung
km/h Bft. km/h Grad Sektor
Sa, 18.09. 20:00 4 1 18 100° O
Sa, 18.09. 14:00 7 2 11 80° O
Sa, 18.09. 8:00 4 1 7 50° NO
Sa, 18.09. 2:00 4 1 11 70° O
Fr, 17.09. 20:00 4 1 18 160° S
Fr, 17.09. 14:00 6 1 13 180° S
Fr, 17.09. 8:00 2 1 7 210° SW
Fr, 17.09. 2:00 7 2 11 250° W
Ortszeit Stärke Spitze Richtung
km/h Bft. km/h Grad Sektor
Sa, 18.09. 20:00 4 1 11 100° O
Sa, 18.09. 19:50 4 1 - 100° O
Sa, 18.09. 19:40 4 1 - 100° O
Sa, 18.09. 19:30 4 1 11 10° N
Sa, 18.09. 19:20 4 1 - 10° N
Sa, 18.09. 19:10 7 2 - 20° N
Sa, 18.09. 19:00 6 1 9 340° N
Sa, 18.09. 18:30 4 1 7 340° N
Sa, 18.09. 18:00 4 1 11 310° NW
Sa, 18.09. 17:30 6 1 11 320° NW
Sa, 18.09. 17:00 4 1 18 330° NW
Ortszeit Untergrenze Bedeckung Gattung
total tief tief mittel hoch
Sa, 18.09. 20:00 1410 m 4/8 4/8 - - -
Sa, 18.09. 14:00 - 0/8 0/8 - - -
Sa, 18.09. 8:00 <30 m 8/8 0/8 - - -
Sa, 18.09. 2:00 8100 m 7/8 0/8 - - -
Fr, 17.09. 20:00 2100 m 1/8 1/8 - - -
Fr, 17.09. 14:00 900 m 7/8 7/8 - - -
Fr, 17.09. 8:00 <30 m 7/8 0/8 - - -
Fr, 17.09. 2:00 1470 m 8/8 8/8 - - -
Ortszeit Bedeckungsgrad in Achtel und Wolkenuntergrenze
Sa, 18.09. 20:00 4(1410m)
Sa, 18.09. 19:50 4(1410m)
Sa, 18.09. 19:40 4(1410m)
Sa, 18.09. 19:30 3(1800m) 4(2100m) 4(10500m)
Sa, 18.09. 19:20 3(1800m)
Sa, 18.09. 19:10 1(1440m) 5(1800m)
Sa, 18.09. 19:00 1(1290m) 7(1800m) 8(1800m)
Sa, 18.09. 18:30 2(2100m)
Sa, 18.09. 18:00 keine Wolken
Sa, 18.09. 17:30 1(10500m)
Sa, 18.09. 17:00 2(10500m)
Ortszeit Luftdruck NN (hPa) Tendenz (hPa in 3 Std.)
Sa, 18.09. 20:00 1015 - 0,3
Sa, 18.09. 14:00 1016 - 0,6
Sa, 18.09. 8:00 1018 + 0,5
Sa, 18.09. 2:00 1017 + 0,2
Fr, 17.09. 20:00 1015 - 0,5
Fr, 17.09. 14:00 1016 - 1,1
Fr, 17.09. 8:00 1018 + 0,1
Fr, 17.09. 2:00 1018 0,0
Ortszeit Luftdruck NN (hPa) Tendenz (hPa in 3 Std.)
Sa, 18.09. 20:00 1015 - 0,3
Sa, 18.09. 19:50 1015 keine Meldung
Sa, 18.09. 19:40 1015 keine Meldung
Sa, 18.09. 19:30 1015 - 0,6
Sa, 18.09. 19:20 1015 keine Meldung
Sa, 18.09. 19:10 1015 keine Meldung
Sa, 18.09. 19:00 1014 - 0,9
Sa, 18.09. 18:30 1014 - 1,0
Sa, 18.09. 18:00 1014 - 1,0
Sa, 18.09. 17:30 1015 - 1,1
Sa, 18.09. 17:00 1015 - 1,2
Ortszeit Schneehöhe (cm)
Sa, 18.09. 20:00 -
Sa, 18.09. 14:00 -
Sa, 18.09. 8:00 -
Sa, 18.09. 2:00 -
Fr, 17.09. 20:00 -
Fr, 17.09. 14:00 -
Fr, 17.09. 8:00 -
Fr, 17.09. 2:00 -
Ortszeit Schneehöhe (cm)
Sa, 18.09. 20:00 -
Sa, 18.09. 19:50 -
Sa, 18.09. 19:40 -
Sa, 18.09. 19:30 -
Sa, 18.09. 19:20 -
Sa, 18.09. 19:10 -
Sa, 18.09. 19:00 -
Sa, 18.09. 18:30 -
Sa, 18.09. 18:00 -
Sa, 18.09. 17:30 -
Sa, 18.09. 17:00 -
Link zu dieser Seite / Seite empfehlen

Das Wetter in ...